Miscellaneous Local Product
Issued by NWS Hastings, NE

Home | Current Version | Previous Version | Text Only | Print | Product List | Glossary On
Versions: 1 2 3 4 5 6 7 8 9 10 11 12 13 14 15 16 17 18 19 20 21 22 23 24 25 26 27 28 29 30 31 32 33 34 35 36 37 38 39 40 41 42 43 44 45 46 47 48 49 50
000
AXUS43 KGID 051702
MISGRI

GID CWA HOURLY WEATHER ROUNDUP
NATIONAL WEATHER SERVICE HASTINGS NE
1200 PM CDT SAT SEP 05 2015

NOTE: "FAIR" INDICATES FEW OR NO CLOUDS BELOW 12,000 FEET WITH NO
SIGNIFICANT WEATHER AND/OR OBSTRUCTIONS TO VISIBILITY.

...SOUTH CENTRAL NEBRASKA...

CITY           SKY/WX    TMP DP  RH WIND       PRES   REMARKS
GRAND ISLAND   CLOUDY    87  67  51 S26G33    29.90S HX  90
HASTINGS       PTSUNNY   87  66  49 S16G30    29.91S
KEARNEY        CLOUDY    82  64  54 E17       29.89F
ORD            CLOUDY    83  65  54 S12       29.86R
YORK           PTSUNNY   86  70  58 S18G29    29.92S HX  90
AURORA         PTSUNNY   87  67  51 S17G24    29.91S HX  90
LEXINGTON      CLOUDY    81  65  59 S16G22    29.87F
HOLDREGE       CLOUDY    82  63  52 S15G21    29.90F
HEBRON         PTSUNNY   87  66  50 S12G24    29.95S

...NEBRASKA PANHANDLE...

CITY           SKY/WX    TMP DP  RH WIND       PRES   REMARKS
CHADRON        CLOUDY    79  54  41 VRB5      29.85F
ALLIANCE       PTSUNNY   82  54  37 NW7       29.88R
SCOTTSBLUFF    MOSUNNY   80  52  37 W8        29.91R
SIDNEY         PTSUNNY   83  50  31 NW10      29.93S

...WESTERN AND NORTH CENTRAL NEBRASKA...

CITY           SKY/WX    TMP DP  RH WIND       PRES   REMARKS
VALENTINE      CLOUDY    76  62  62 E6        29.82S
AINSWORTH      CLOUDY    76  66  71 E5        29.84S
ONEILL         CLOUDY    82  66  57 S13       29.84F
BROKEN BOW     CLOUDY    80  63  55 S15G24    29.87S
IMPERIAL       CLOUDY    86  54  33 SW14      29.89S
NORTH PLATTE   CLOUDY    78  60  53 S13       29.86S
MCCOOK         CLOUDY    85  59  41 S14       29.87R

...EASTERN NEBRASKA...

CITY           SKY/WX    TMP DP  RH WIND       PRES   REMARKS
NORFOLK        MOSUNNY   87  71  58 S14G30    29.86F HX  93
SO SIOUX CITY  MOSUNNY   85  72  65 S16G28    29.89R HX  91
TEKAMAH        MOSUNNY   87  73  62 S16G24    29.92S HX  94
COLUMBUS       MOSUNNY   88  70  55 S15G21    29.89F HX  92
ALBION         MOSUNNY   84  67  57 S16G22    29.89R
OMAHA EPPLEY   PTSUNNY   89  71  55 S20       29.94F HX  95
OFFUTT AFB     SUNNY     87  72  59 S14       29.94F HX  94
MILLARD        SUNNY     86  73  64 S10G18    29.94S HX  93
LINCOLN        SUNNY     90  70  51 S20G29    29.93F HX  95
NEBRASKA CITY  SUNNY     88  63  42 SW16G24   29.97F
BEATRICE       MOSUNNY   87  70  55 S14G25    29.95F HX  92
FALLS CITY     SUNNY     91  71  51 S13       29.98F HX  97

...NORTHERN KANSAS...

CITY           SKY/WX    TMP DP  RH WIND       PRES   REMARKS
GOODLAND       PTSUNNY   87  53  31 S15G24    29.93S
HILL CITY      CLOUDY    92  62  36 S22       29.90F HX  92
NORTON         MOSUNNY   86  57  37 S16       29.89S
PHILLIPSBURG   SUNNY     91  63  38 S16G22    29.90F HX  92
SMITH CENTER   SUNNY     88  63  42 S21G26    29.92F
HAYS           CLOUDY    90  63  40 S22G28    29.93F HX  90
RUSSELL        PTSUNNY   91  63  39 S28G33    29.93F HX  92
CONCORDIA      PTSUNNY   88  68  51 S17G29    29.96S HX  91
SALINA         PTSUNNY   91  67  44 S17G26    29.97F HX  94
TOPEKA         SUNNY     90  70  51 SW16G22   30.01R HX  95



USA.gov is the U.S. government's official web portal to all federal, state and local government web resources and services.